| time (UTC) | temp F | wind direction | speed knots | gust knots | rain 1hr in | rain 24hr in | rain mn in | humidity % | barometer mb |
| 20260507114546 | 0 | 0.0 | 0.0 | 0.00 | 0.00 | 0.00 | 1003.8 | ||
| 20260507113042 | 78 | 355 | 0.0 | 0.0 | 0.00 | 0.00 | 0.00 | 52 | 1003.8 |
| 20260507111539 | 78 | 355 | 0.0 | 0.0 | 0.00 | 0.00 | 0.00 | 52 | 1003.6 |
| 20260507110009 | 78 | 355 | 0.9 | 0.0 | 0.00 | 0.00 | 0.00 | 50 | 1003.3 |
| 20260507104508 | 78 | 9 | 3.5 | 0.0 | 0.00 | 0.00 | 0.00 | 45 | 1003.2 |
| 20260507103002 | 78 | 9 | 1.7 | 0.0 | 0.00 | 0.00 | 0.00 | 49 | 1002.8 |
| 20260507101601 | 79 | 9 | 0.9 | 0.0 | 0.00 | 0.00 | 0.00 | 45 | 1002.8 |
| 20260507100057 | 79 | 9 | 0.0 | 0.0 | 0.00 | 0.00 | 0.00 | 44 | 1002.9 |
| 20260507094609 | 80 | 9 | 0.9 | 0.0 | 0.00 | 0.00 | 0.00 | 42 | 1002.9 |
| 20260507093023 | 80 | 5 | 1.7 | 0.0 | 0.00 | 0.00 | 0.00 | 41 | 1002.5 |
| 20260507091521 | 81 | 360 | 0.9 | 0.0 | 0.00 | 0.00 | 0.00 | 39 | 1003.0 |
| 20260507090009 | 81 | 360 | 2.6 | 0.0 | 0.00 | 0.00 | 0.00 | 40 | 1003.3 |
| 20260507084510 | 82 | 360 | 4.3 | 0.0 | 0.00 | 0.00 | 0.00 | 35 | 1003.4 |
| 20260507083006 | 82 | 355 | 2.6 | 0.0 | 0.00 | 0.00 | 0.00 | 26 | 1003.8 |
| 20260507081511 | 83 | 355 | 3.5 | 0.0 | 0.00 | 0.00 | 0.00 | 23 | 1003.6 |
| 20260507080003 | 83 | 355 | 3.5 | 0.0 | 0.00 | 0.00 | 0.00 | 22 | 1003.7 |
| 20260507074601 | 84 | 355 | 4.3 | 0.0 | 0.00 | 0.00 | 0.00 | 14 | 1003.6 |
| 20260507073102 | 86 | 355 | 2.6 | 0.0 | 0.00 | 0.00 | 0.00 | 12 | 1003.9 |
| 20260507071602 | 86 | 321 | 6.1 | 0.0 | 0.00 | 0.00 | 0.00 | 13 | 1003.7 |
| 20260507070012 | 85 | 327 | 5.2 | 0.0 | 0.00 | 0.00 | 0.00 | 14 | 1003.4 |
| 20260507064505 | 82 | 332 | 7.0 | 0.0 | 0.00 | 0.00 | 0.00 | 14 | 1003.6 |
| 20260507063000 | 82 | 295 | 1.7 | 0.0 | 0.00 | 0.00 | 0.00 | 14 | 1003.6 |
| 20260507061559 | 83 | 295 | 1.7 | 0.0 | 0.00 | 0.00 | 0.00 | 14 | 1003.8 |
| 20260507060110 | 83 | 295 | 3.5 | 0.0 | 0.00 | 0.00 | 0.00 | 14 | 1003.7 |
| 20260507054600 | 83 | 295 | 2.6 | 0.0 | 0.00 | 0.00 | 0.00 | 13 | 1003.7 |
| 20260507053057 | 84 | 295 | 4.3 | 0.0 | 0.00 | 0.00 | 0.00 | 13 | 1003.7 |
| 20260507051556 | 84 | 300 | 1.7 | 0.0 | 0.00 | 0.00 | 0.00 | 12 | 1003.6 |
| 20260507050051 | 85 | 342 | 2.6 | 0.0 | 0.00 | 0.00 | 0.00 | 12 | 1003.4 |
| 20260507044549 | 85 | 355 | 1.7 | 0.0 | 0.00 | 0.00 | 0.00 | 12 | 1003.2 |
| 20260507043046 | 85 | 13 | 0.0 | 0.0 | 0.00 | 0.00 | 0.00 | 12 | 1002.8 |
| 20260507041543 | 84 | 13 | 0.0 | 0.0 | 0.00 | 0.00 | 0.00 | 13 | 1002.6 |
| 20260507040011 | 85 | 13 | 0.9 | 0.0 | 0.00 | 0.00 | 0.00 | 13 | 1002.2 |
| 20260507034509 | 86 | 13 | 0.0 | 0.0 | 0.00 | 0.00 | 0.00 | 12 | 1002.0 |
| 20260507033005 | 85 | 13 | 0.0 | 0.0 | 0.00 | 0.00 | 0.00 | 12 | 1001.6 |
| 20260507031504 | 86 | 13 | 0.0 | 0.0 | 0.00 | 0.00 | 0.00 | 12 | 1001.5 |
| 20260507030100 | 85 | 13 | 0.0 | 0.0 | 0.00 | 0.00 | 0.00 | 12 | 1001.2 |
| 20260507024600 | 86 | 13 | 0.0 | 0.0 | 0.00 | 0.00 | 0.00 | 11 | 1000.9 |
| 20260507023025 | 86 | 13 | 0.0 | 0.0 | 0.00 | 0.00 | 0.00 | 11 | 1000.7 |
| 20260507021521 | 87 | 13 | 0.0 | 0.0 | 0.00 | 0.00 | 0.00 | 10 | 1000.5 |
| 20260507020016 | 88 | 13 | 0.0 | 0.0 | 0.00 | 0.00 | 0.00 | 10 | 1000.4 |
| 20260507014522 | 89 | 13 | 0.0 | 0.0 | 0.00 | 0.00 | 0.00 | 9 | 1000.1 |
| 20260507013009 | 90 | 13 | 0.0 | 0.0 | 0.00 | 0.00 | 0.00 | 9 | 999.8 |
| 20260507011508 | 91 | 13 | 1.7 | 0.0 | 0.00 | 0.00 | 0.00 | 9 | 999.7 |
| 20260507004555 | 93 | 15 | 4.3 | 0.0 | 0.00 | 0.00 | 0.00 | 8 | 999.2 |
| 20260507003152 | 94 | 17 | 5.2 | 0.0 | 0.00 | 0.00 | 0.00 | 9 | 998.8 |
| 20260507001555 | 95 | 19 | 6.1 | 0.0 | 0.00 | 0.00 | 0.00 | 8 | 998.3 |
| 20260507000046 | 95 | 19 | 5.2 | 0.0 | 0.00 | 0.00 | 0.00 | 8 | 998.2 |
| 20260506234514 | 96 | 21 | 4.3 | 0.0 | 0.00 | 0.00 | 0.00 | 8 | 998.2 |
| 20260506233016 | 96 | 22 | 3.5 | 0.0 | 0.00 | 0.00 | 0.00 | 8 | 998.2 |
| 20260506231509 | 96 | 22 | 3.5 | 0.0 | 0.00 | 0.00 | 0.00 | 8 | 998.2 |
| 20260506230013 | 97 | 22 | 2.6 | 0.0 | 0.00 | 0.00 | 0.00 | 8 | 998.2 |
| 20260506224504 | 96 | 22 | 4.3 | 0.0 | 0.00 | 0.00 | 0.00 | 8 | 998.2 |
| 20260506223004 | 96 | 22 | 5.2 | 0.0 | 0.00 | 0.00 | 0.00 | 8 | 998.3 |
| 20260506221501 | 97 | 21 | 3.5 | 0.0 | 0.00 | 0.00 | 0.00 | 8 | 998.6 |
| 20260506220002 | 95 | 21 | 4.3 | 0.0 | 0.00 | 0.00 | 0.00 | 8 | 998.8 |
| 20260506214609 | 96 | 25 | 4.3 | 0.0 | 0.00 | 0.00 | 0.00 | 8 | 999.1 |
| 20260506213059 | 96 | 19 | 2.6 | 0.0 | 0.00 | 0.00 | 0.00 | 8 | 999.2 |
| 20260506211533 | 95 | 18 | 5.2 | 0.0 | 0.00 | 0.00 | 0.00 | 8 | 999.4 |
| 20260506210030 | 95 | 30 | 1.7 | 0.0 | 0.00 | 0.00 | 0.00 | 8 | 999.9 |
| 20260506204611 | 95 | 30 | 4.3 | 0.0 | 0.00 | 0.00 | 0.00 | 9 | 1000.1 |
| 20260506203058 | 95 | 41 | 2.6 | 0.0 | 0.00 | 0.00 | 0.00 | 9 | 1000.4 |
| 20260506201555 | 95 | 29 | 2.6 | 0.0 | 0.00 | 0.00 | 0.00 | 9 | 1000.8 |
| 20260506200056 | 95 | 27 | 1.7 | 0.0 | 0.00 | 0.00 | 0.00 | 9 | 1001.0 |
| 20260506194553 | 95 | 27 | 0.9 | 0.0 | 0.00 | 0.00 | 0.00 | 9 | 1001.2 |
| 20260506193053 | 95 | 27 | 1.7 | 0.0 | 0.00 | 0.00 | 0.00 | 9 | 1001.6 |
| 20260506191524 | 94 | 27 | 1.7 | 0.0 | 0.00 | 0.00 | 0.00 | 9 | 1001.9 |
| 20260506190023 | 93 | 27 | 1.7 | 0.0 | 0.00 | 0.00 | 0.00 | 9 | 1002.1 |
| 20260506184523 | 93 | 27 | 1.7 | 0.0 | 0.00 | 0.00 | 0.00 | 9 | 1002.5 |
| 20260506183018 | 92 | 27 | 2.6 | 0.0 | 0.00 | 0.00 | 0.00 | 10 | 1002.7 |
| 20260506181515 | 92 | 27 | 2.6 | 0.0 | 0.00 | 0.00 | 0.00 | 10 | 1003.0 |
| 20260506180013 | 91 | 27 | 2.6 | 0.0 | 0.00 | 0.00 | 0.00 | 11 | 1003.2 |
| 20260506174508 | 90 | 30 | 1.7 | 0.0 | 0.00 | 0.00 | 0.00 | 11 | 1003.3 |
| 20260506173005 | 90 | 35 | 3.5 | 0.0 | 0.00 | 0.00 | 0.00 | 12 | 1003.7 |
| 20260506171502 | 90 | 36 | 1.7 | 0.0 | 0.00 | 0.00 | 0.00 | 12 | 1003.9 |
| 20260506170100 | 90 | 36 | 0.0 | 0.0 | 0.00 | 0.00 | 0.00 | 12 | 1004.0 |
| 20260506164556 | 89 | 36 | 1.7 | 0.0 | 0.00 | 0.00 | 0.00 | 12 | 1004.1 |
| 20260506163055 | 89 | 36 | 1.7 | 0.0 | 0.00 | 0.00 | 0.00 | 12 | 1004.1 |
| 20260506161553 | 87 | 36 | 2.6 | 0.0 | 0.00 | 0.00 | 0.00 | 13 | 1004.2 |
| 20260506160047 | 86 | 36 | 2.6 | 0.0 | 0.00 | 0.00 | 0.00 | 13 | 1004.3 |
| 20260506154514 | 86 | 36 | 2.6 | 0.0 | 0.00 | 0.00 | 0.00 | 13 | 1004.3 |
| 20260506153012 | 86 | 36 | 1.7 | 0.0 | 0.00 | 0.00 | 0.00 | 13 | 1004.3 |
| 20260506151508 | 85 | 36 | 1.7 | 0.0 | 0.00 | 0.00 | 0.00 | 13 | 1004.4 |
| 20260506150008 | 85 | 36 | 0.0 | 0.0 | 0.00 | 0.00 | 0.00 | 13 | 1004.4 |
| 20260506144516 | 84 | 36 | 0.0 | 0.0 | 0.00 | 0.00 | 0.00 | 14 | 1004.3 |
| 20260506143006 | 83 | 36 | 0.0 | 0.0 | 0.00 | 0.00 | 0.00 | 14 | 1004.5 |
| 20260506141601 | 83 | 36 | 0.9 | 0.0 | 0.00 | 0.00 | 0.00 | 15 | 1004.3 |
| 20260506140119 | 83 | 36 | 0.0 | 0.0 | 0.00 | 0.00 | 0.00 | 13 | 1004.1 |
| 20260506134556 | 83 | 36 | 0.0 | 0.0 | 0.00 | 0.00 | 0.00 | 14 | 1003.9 |
| 20260506133125 | 80 | 36 | 0.0 | 0.0 | 0.00 | 0.00 | 0.00 | 15 | 1003.8 |
| 20260506131551 | 77 | 32 | 0.0 | 0.0 | 0.00 | 0.00 | 0.00 | 18 | 1003.6 |
| 20260506130131 | 74 | 32 | 0.0 | 0.0 | 0.00 | 0.00 | 0.00 | 20 | 1003.5 |
| 20260506124548 | 0 | 0.0 | 0.0 | 0.00 | 0.00 | 0.00 | 1003.3 | ||
| 20260506123045 | 0 | 0.0 | 0.0 | 0.00 | 0.00 | 0.00 | 1003.1 | ||
| 20260506121535 | 0 | 0.0 | 0.0 | 0.00 | 0.00 | 0.00 | 1003.0 | ||
| 20260506120033 | 0 | 0.0 | 0.0 | 0.00 | 0.00 | 0.00 | 1003.0 |